Sky Queen — 3EHV9 — position and weather

sailwx.info

Track history (hours):
 
Tides and Currents Weather Stations Pressure Air Temp Water Temp Dewpoint Dewpoint Depression Visibility Wind Speed Wind Dir Waves Ship Positions

Sky Queen

Last reported at 2014-Oct-24 05:27 UTC. Time now 2014-Oct-26 07:07 UTC.
Position N 34°37' E 135°01'.

Length 89 m; draft 3.2 m.

Type: Cargo ship. MMSI: 372259000.

Date/timePositionNaut miles runAvg speedWind from/ knotsBaromVisibWave heightAir tempDewpointWater temp
2014-Oct-24 05:27N 34°37' E 135°01'6 6.6
2014-Oct-24 04:33N 34°35' E 135°08'10 9.5
2014-Oct-24 03:33N 34°33' E 135°19'3 0.1
2014-Oct-22 22:30N 34°32' E 135°23'7 7.3
2014-Oct-22 21:33N 34°31' E 135°14'1 0.8
2014-Oct-22 20:33N 34°32' E 135°14'7 6.7
2014-Oct-22 19:33N 34°34' E 135°07'  
2014-Oct-18 23:32N 38°17' E 121°27'173 9.1
2014-Oct-18 04:32N 38°57' E 117°52'5 5.0
2014-Oct-18 03:33N 38°59' E 117°46'0 0.0
2014-Oct-18 02:30N 38°59' E 117°46'0 0.0
2014-Oct-18 01:30N 38°59' E 117°46'0 0.0
2014-Oct-18 00:30N 38°59' E 117°46'0 0.0
2014-Oct-17 23:30N 38°59' E 117°46'0 0.0
2014-Oct-17 22:30N 38°59' E 117°46'0 0.0
2014-Oct-17 21:30N 38°59' E 117°46'0 0.0
2014-Oct-17 20:30N 38°59' E 117°46'0 0.0
2014-Oct-17 19:30N 38°59' E 117°46'0 0.0
2014-Oct-17 18:24N 38°59' E 117°46'0 0.0
2014-Oct-17 17:30N 38°59' E 117°46'0 0.0
2014-Oct-17 16:30N 38°59' E 117°46'0 0.0
2014-Oct-17 15:30N 38°59' E 117°46'0 0.0
2014-Oct-17 14:33N 38°59' E 117°46'0 0.0
2014-Oct-17 13:33N 38°59' E 117°46'7 6.5
2014-Oct-17 12:33N 38°57' E 117°54'198 9.3
2014-Oct-16 15:12N 38°02' E 121°56'7 9.8
2014-Oct-16 14:30N 37°58' E 122°03'33 9.7
2014-Oct-16 11:04N 37°38' E 122°37'34 7.5
2014-Oct-16 06:33N 37°06' E 122°53'9 8.0
2014-Oct-16 05:27N 36°58' E 122°53'11 8.1
2014-Oct-16 04:07N 36°47' E 122°53'330 7.1
2014-Oct-14 05:32N 31°22' E 121°37'  
Track history (hours):
 
Tides and Currents Weather Stations Pressure Air Temp Water Temp Dewpoint Dewpoint Depression Visibility Wind Speed Wind Dir Waves Ship Positions

Sky Queen

Last reported at 2014-Oct-24 05:27 UTC. Time now 2014-Oct-26 07:07 UTC.
Position N 34°37' E 135°01'.

Length 89 m; draft 3.2 m.

Type: Cargo ship. MMSI: 372259000.

Date/timePositionNaut miles runAvg speedWind from/ knotsBaromVisibWave heightAir tempDewpointWater temp
2014-Oct-24 05:27N 34°37' E 135°01'6 6.6
2014-Oct-24 04:33N 34°35' E 135°08'10 9.5
2014-Oct-24 03:33N 34°33' E 135°19'3 0.1
2014-Oct-22 22:30N 34°32' E 135°23'7 7.3
2014-Oct-22 21:33N 34°31' E 135°14'1 0.8
2014-Oct-22 20:33N 34°32' E 135°14'7 6.7
2014-Oct-22 19:33N 34°34' E 135°07'  
2014-Oct-18 23:32N 38°17' E 121°27'173 9.1
2014-Oct-18 04:32N 38°57' E 117°52'5 5.0
2014-Oct-18 03:33N 38°59' E 117°46'0 0.0
2014-Oct-18 02:30N 38°59' E 117°46'0 0.0
2014-Oct-18 01:30N 38°59' E 117°46'0 0.0
2014-Oct-18 00:30N 38°59' E 117°46'0 0.0
2014-Oct-17 23:30N 38°59' E 117°46'0 0.0
2014-Oct-17 22:30N 38°59' E 117°46'0 0.0
2014-Oct-17 21:30N 38°59' E 117°46'0 0.0
2014-Oct-17 20:30N 38°59' E 117°46'0 0.0
2014-Oct-17 19:30N 38°59' E 117°46'0 0.0
2014-Oct-17 18:24N 38°59' E 117°46'0 0.0
2014-Oct-17 17:30N 38°59' E 117°46'0 0.0
2014-Oct-17 16:30N 38°59' E 117°46'0 0.0
2014-Oct-17 15:30N 38°59' E 117°46'0 0.0
2014-Oct-17 14:33N 38°59' E 117°46'0 0.0
2014-Oct-17 13:33N 38°59' E 117°46'7 6.5
2014-Oct-17 12:33N 38°57' E 117°54'198 9.3
2014-Oct-16 15:12N 38°02' E 121°56'7 9.8
2014-Oct-16 14:30N 37°58' E 122°03'33 9.7
2014-Oct-16 11:04N 37°38' E 122°37'34 7.5
2014-Oct-16 06:33N 37°06' E 122°53'9 8.0
2014-Oct-16 05:27N 36°58' E 122°53'11 8.1
2014-Oct-16 04:07N 36°47' E 122°53'330 7.1
2014-Oct-14 05:32N 31°22' E 121°37'  

Dump ship's entire track history